Lindcove
DateTemperatureDew Point
09/01 - 12:00 AM68.4°49.0°
08/31 - 11:45 PM68.7°47.2°
08/31 - 11:30 PM70.1°47.0°
08/31 - 11:15 PM71.1°45.1°
08/31 - 11:00 PM72.6°43.5°
08/31 - 10:45 PM73.8°42.3°
08/31 - 10:30 PM73.8°43.2°
08/31 - 10:15 PM74.2°43.9°
08/31 - 10:00 PM75.5°41.1°
08/31 - 09:45 PM76.2°41.1°
08/31 - 09:30 PM75.0°41.7°
08/31 - 09:15 PM75.7°42.8°
08/31 - 09:00 PM76.1°47.1°
08/31 - 08:45 PM76.3°52.0°
08/31 - 08:30 PM75.4°56.7°
08/31 - 08:15 PM77.1°63.2°
08/31 - 08:00 PM78.1°65.2°
08/31 - 07:45 PM80.6°67.5°
08/31 - 07:30 PM82.6°67.5°
08/31 - 07:15 PM84.8°67.5°
08/31 - 07:00 PM85.8°63.8°
08/31 - 06:45 PM86.9°59.6°
08/31 - 06:30 PM88.9°56.6°
08/31 - 06:15 PM89.9°55.9°
08/31 - 06:00 PM90.6°55.2°
08/31 - 05:45 PM91.1°54.0°
08/31 - 05:30 PM91.6°53.4°
08/31 - 05:15 PM91.7°53.6°
08/31 - 05:00 PM91.9°54.4°
08/31 - 04:45 PM91.5°54.0°
08/31 - 04:30 PM91.4°53.5°
08/31 - 04:15 PM91.4°53.7°
08/31 - 04:00 PM91.4°54.6°
08/31 - 03:45 PM91.3°53.9°
08/31 - 03:30 PM91.3°54.2°
08/31 - 03:15 PM90.6°53.4°
08/31 - 03:00 PM90.3°52.7°
08/31 - 02:45 PM90.4°52.7°
08/31 - 02:30 PM90.5°52.5°
08/31 - 02:15 PM90.1°52.4°
08/31 - 02:00 PM89.1°50.8°
08/31 - 01:45 PM89.0°49.3°
08/31 - 01:30 PM88.5°51.6°
08/31 - 01:15 PM88.0°51.1°
08/31 - 01:00 PM87.4°51.4°
08/31 - 12:45 PM86.6°51.9°
08/31 - 12:30 PM86.1°52.4°
08/31 - 12:15 PM85.1°51.5°
08/31 - 12:00 PM84.7°52.9°
08/31 - 11:45 AM84.0°53.3°
08/31 - 11:30 AM83.3°53.9°
08/31 - 11:15 AM81.9°52.8°
08/31 - 11:00 AM81.5°53.5°
08/31 - 10:45 AM80.5°52.0°
08/31 - 10:30 AM79.7°51.8°
08/31 - 10:15 AM79.1°51.2°
08/31 - 10:00 AM79.1°50.9°
08/31 - 09:45 AM77.8°50.8°
08/31 - 09:30 AM76.9°51.5°
08/31 - 09:15 AM75.4°51.0°
08/31 - 09:00 AM73.7°50.5°
08/31 - 08:45 AM72.4°50.5°
08/31 - 08:30 AM71.6°52.0°
08/31 - 08:15 AM70.6°53.5°
08/31 - 08:00 AM69.4°54.4°
08/31 - 07:45 AM68.8°56.2°
08/31 - 07:30 AM68.2°57.3°
08/31 - 07:15 AM65.3°58.8°
08/31 - 07:00 AM63.5°58.8°
08/31 - 06:45 AM62.3°56.9°
08/31 - 06:30 AM61.8°55.2°
08/31 - 06:15 AM61.3°54.5°
08/31 - 06:00 AM62.4°56.0°
08/31 - 05:45 AM64.0°55.8°
08/31 - 05:30 AM63.6°52.8°
08/31 - 05:15 AM64.5°55.4°
08/31 - 05:00 AM65.5°59.4°
08/31 - 04:45 AM63.8°56.3°
08/31 - 04:30 AM64.6°56.1°
08/31 - 04:15 AM65.9°55.9°
08/31 - 04:00 AM66.3°54.8°
08/31 - 03:45 AM66.3°56.2°
08/31 - 03:30 AM66.5°61.8°
08/31 - 03:15 AM66.7°61.5°
08/31 - 03:00 AM65.8°59.5°
08/31 - 02:45 AM67.3°60.4°
08/31 - 02:30 AM68.9°60.5°
08/31 - 02:15 AM70.7°60.3°
08/31 - 02:00 AM68.9°58.5°
08/31 - 01:45 AM69.1°58.2°
08/31 - 01:30 AM70.0°58.7°
08/31 - 01:15 AM69.1°60.2°
08/31 - 01:00 AM68.5°61.9°
08/31 - 12:45 AM69.2°64.9°
08/31 - 12:30 AM70.1°66.0°
08/31 - 12:15 AM68.3°64.1°
08/31 - 12:00 AM67.7°64.1°
08/30 - 11:45 PM70.2°66.9°
08/30 - 11:30 PM70.0°66.2°
08/30 - 11:15 PM69.0°64.5°
08/30 - 11:00 PM70.3°65.0°
08/30 - 10:45 PM71.0°65.3°
08/30 - 10:30 PM72.5°66.3°
08/30 - 10:15 PM72.6°66.9°
08/30 - 10:00 PM72.0°65.9°
08/30 - 09:45 PM74.2°67.2°
08/30 - 09:30 PM74.5°66.0°
08/30 - 09:15 PM75.4°65.3°
08/30 - 09:00 PM75.3°64.6°
08/30 - 08:45 PM77.1°66.2°
08/30 - 08:30 PM77.1°66.7°
08/30 - 08:15 PM82.2°71.4°
08/30 - 08:00 PM83.4°72.3°
08/30 - 07:45 PM85.0°73.4°
08/30 - 07:30 PM85.6°69.9°
08/30 - 07:15 PM87.0°66.8°
08/30 - 07:00 PM88.7°63.4°
08/30 - 06:45 PM90.1°61.3°
08/30 - 06:30 PM91.1°59.5°
08/30 - 06:15 PM91.4°57.3°
08/30 - 06:00 PM91.9°57.0°
08/30 - 05:45 PM92.0°56.8°
08/30 - 05:30 PM92.3°56.9°
08/30 - 05:15 PM92.4°56.7°
08/30 - 05:00 PM92.4°56.4°
08/30 - 04:45 PM92.3°56.8°
08/30 - 04:30 PM92.4°57.1°
08/30 - 04:15 PM92.4°57.1°
08/30 - 04:00 PM91.7°57.2°
08/30 - 03:45 PM91.9°56.1°
08/30 - 03:30 PM92.0°55.5°
08/30 - 03:15 PM91.8°54.8°
08/30 - 03:00 PM91.3°55.2°
08/30 - 02:45 PM90.3°54.8°
08/30 - 02:30 PM90.0°54.4°
08/30 - 02:15 PM90.1°55.1°
08/30 - 02:00 PM89.0°54.5°
08/30 - 01:45 PM88.4°54.5°
08/30 - 01:30 PM87.5°54.1°
08/30 - 01:15 PM86.8°53.0°
08/30 - 01:00 PM86.2°52.9°
08/30 - 12:45 PM85.2°52.7°
08/30 - 12:30 PM84.5°53.1°
08/30 - 12:15 PM83.7°52.8°
08/30 - 12:00 PM83.4°53.5°
08/30 - 11:45 AM82.1°53.1°
08/30 - 11:30 AM81.5°54.2°
08/30 - 11:15 AM80.8°54.6°
08/30 - 11:00 AM80.0°54.3°
08/30 - 10:45 AM79.7°54.6°
08/30 - 10:30 AM78.7°54.5°
08/30 - 10:15 AM77.6°55.1°
08/30 - 10:00 AM76.2°54.8°
08/30 - 09:45 AM75.1°55.2°
08/30 - 09:30 AM73.5°55.1°
08/30 - 09:15 AM72.6°55.5°
08/30 - 09:00 AM71.6°55.6°
08/30 - 08:45 AM70.4°55.7°
08/30 - 08:30 AM69.4°56.0°
08/30 - 08:15 AM68.5°55.9°
08/30 - 08:00 AM68.3°56.5°
08/30 - 07:45 AM67.6°57.4°
08/30 - 07:30 AM67.0°61.9°
08/30 - 07:15 AM64.7°64.6°
08/30 - 07:00 AM63.6°63.6°
08/30 - 06:45 AM62.8°62.8°
08/30 - 06:30 AM62.1°62.1°
08/30 - 06:15 AM62.5°62.4°
08/30 - 06:00 AM62.3°62.1°
08/30 - 05:45 AM63.0°62.7°
08/30 - 05:30 AM63.2°62.9°
08/30 - 05:15 AM63.6°63.3°
08/30 - 05:00 AM64.7°64.4°
08/30 - 04:45 AM64.5°64.1°
08/30 - 04:30 AM64.9°64.4°
08/30 - 04:15 AM65.4°64.7°
08/30 - 04:00 AM65.5°64.7°
08/30 - 03:45 AM66.2°65.2°
08/30 - 03:30 AM66.7°65.6°
08/30 - 03:15 AM66.7°65.4°
08/30 - 03:00 AM67.4°66.1°
08/30 - 02:45 AM67.8°66.4°
08/30 - 02:30 AM67.9°66.2°
08/30 - 02:15 AM67.6°65.6°
08/30 - 02:00 AM68.7°66.5°
08/30 - 01:45 AM69.7°67.0°
08/30 - 01:30 AM70.2°67.0°
08/30 - 01:15 AM72.5°68.9°
08/30 - 01:00 AM72.0°67.7°
08/30 - 12:45 AM70.1°65.0°